EW9744 Weather Reports


time (UTC)temp
C
wind
direction
speed
KPH
gust
KPH
rain 1hr
cm
rain 24hr
cm
rain mn
cm
humidity
%
barometer
mb
20260505223107 22 327 12.9 24.1 0.00 0.00 0.00 52 1015.2
20260505220031 22 319 12.9 27.4 0.00 0.00 0.00 50 1015.5
20260505214533 22 316 11.3 29.0 0.00 0.00 0.00 51 1015.5
20260505213028 22 321 9.7 22.5 0.00 0.00 0.00 51 1015.5
20260505211532 23 312 11.3 22.5 0.00 0.00 0.00 50 1015.6
20260505210035 21 312 9.7 22.5 0.00 0.00 0.00 54 1015.8
20260505204531 21 330 12.9 24.1 0.00 0.00 0.00 55 1015.9
20260505203032 20 338 12.9 25.7 0.00 0.00 0.00 56 1015.9
20260505201529 19 335 16.1 29.0 0.00 0.00 0.00 57 1016.0
20260505200033 20 330 16.1 30.6 0.00 0.00 0.00 57 1016.1
20260505194529 19 329 16.1 32.2 0.00 0.00 0.00 57 1016.1
20260505193030 18 327 14.5 27.4 0.00 0.00 0.00 60 1016.2
20260505191530 18 326 12.9 25.7 0.00 0.00 0.00 61 1016.2
20260505190032 18 324 14.5 25.7 0.00 0.00 0.00 62 1016.3
20260505184529 17 326 14.5 29.0 0.00 0.00 0.00 64 1016.3
20260505183031 17 324 14.5 27.4 0.00 0.00 0.00 65 1016.4
20260505180030 16 331 16.1 30.6 0.00 0.00 0.00 66 1016.3
20260505174530 16 326 16.1 27.4 0.00 0.00 0.00 67 1016.3
20260505173026 16 332 14.5 25.7 0.00 0.00 0.00 68 1016.2
20260505161605 15 302 11.3 22.5 0.00 0.00 0.00 70 1016.1
20260505153031 15 302 8.0 17.7 0.00 0.00 0.00 71 1015.9
20260505151532 14 308 4.8 14.5 0.00 0.00 0.00 72 1015.9
20260505124531 10 273 1.6 8.0 0.00 0.00 0.00 86 1014.8
20260505123032 11 288 1.6 6.4 0.00 0.00 0.00 86 1014.8
20260505121608 11 314 4.8 8.0 0.00 0.00 0.00 86 1014.8
20260505120032 11 344 1.6 4.8 0.00 0.00 0.00 86 1014.7
20260505114605 11 323 1.6 6.4 0.00 0.00 0.00 85 1014.7
20260505113034 11 356 0.0 8.0 0.00 0.00 0.00 85 1014.6
20260505111604 11 336 1.6 8.0 0.00 0.00 0.00 86 1014.6
20260505101531 12 12 1.6 6.4 0.00 0.00 0.00 83 1014.2
20260505100038 12 12 1.6 6.4 0.00 0.00 0.00 83 1014.1
20260505094530 12 313 1.6 6.4 0.00 0.00 0.00 83 1014.0
20260505093031 12 334 3.2 12.9 0.00 0.00 0.00 83 1014.0
20260505091608 12 299 1.6 12.9 0.00 0.00 0.00 83 1013.9
20260505090030 12 320 1.6 6.4 0.00 0.00 0.00 83 1013.7
20260505084535 12 342 1.6 4.8 0.00 0.00 0.00 82 1013.8
20260505083029 12 328 3.2 8.0 0.00 0.00 0.00 81 1013.7
20260505081530 13 356 1.6 8.0 0.00 0.00 0.00 79 1013.7
20260505080031 13 353 3.2 8.0 0.00 0.00 0.00 78 1013.6
20260505074530 14 321 3.2 8.0 0.00 0.00 0.00 76 1013.6
20260505073031 14 300 1.6 6.4 0.00 0.00 0.00 74 1013.5
20260505071532 15 135 1.6 6.4 0.00 0.00 0.00 73 1013.4
20260505070034 15 206 3.2 9.7 0.00 0.00 0.00 71 1013.3
20260505064605 16 260 3.2 9.7 0.00 0.00 0.00 71 1013.2
20260505063107 16 209 6.4 20.9 0.00 0.00 0.00 70 1013.2
20260505061604 16 217 6.4 19.3 0.00 0.00 0.00 70 1013.2
20260505060029 16 218 6.4 16.1 0.00 0.00 0.00 68 1013.2
20260505053103 16 203 8.0 17.7 0.00 0.00 0.00 65 1013.2
20260505051602 17 206 8.0 20.9 0.00 0.00 0.00 63 1013.1
20260505050107 16 206 8.0 27.4 0.00 0.00 0.00 62 1013.0
20260505041531 17 222 6.4 17.7 0.00 0.00 0.00 57 1012.6
20260505040043 17 202 8.0 22.5 0.00 0.00 0.00 56 1012.4
20260505034529 18 204 6.4 12.9 0.00 0.00 0.00 55 1012.2
20260505033030 18 199 4.8 12.9 0.00 0.00 0.00 54 1012.0
20260505031528 18 193 4.8 9.7 0.00 0.00 0.00 54 1011.8
20260505030032 19 155 3.2 8.0 0.00 0.00 0.00 53 1011.6
20260505024531 20 185 8.0 17.7 0.00 0.00 0.00 52 1011.5
20260505023030 20 208 6.4 27.4 0.00 0.00 0.00 52 1011.4
20260505021530 20 186 6.4 17.7 0.00 0.00 0.00 51 1011.4
20260505020030 21 249 11.3 35.4 0.00 0.00 0.00 50 1011.3
20260505014531 22 273 8.0 22.5 0.00 0.00 0.00 47 1011.2
20260505013031 22 96 3.2 12.9 0.00 0.00 0.00 46 1011.1
20260505011530 22 315 4.8 24.1 0.00 0.00 0.00 45 1011.1
20260505010033 23 267 8.0 24.1 0.00 0.00 0.00 44 1011.2
20260505004529 23 266 12.9 30.6 0.00 0.00 0.00 43 1011.2
20260505003107 23 248 12.9 33.8 0.00 0.00 0.00 42 1011.3
20260505001531 25 251 14.5 27.4 0.00 0.00 0.00 40 1011.3
20260505000031 25 267 11.3 29.0 0.00 0.00 0.00 40 1011.4
20260504234528 25 265 12.9 32.2 0.00 0.00 0.00 39 1011.3
20260504233146 26 279 16.1 35.4 0.00 0.00 0.00 38 1011.2
20260504231645 26 287 16.1 32.2 0.00 0.00 0.00 37 1011.2
20260504230030 26 288 16.1 32.2 0.00 0.00 0.00 37 1011.3
20260504224646 26 284 16.1 40.2 0.00 0.00 0.00 37 1011.4